Date String (YYYY-MM-DD hh:mm:ss) UTC,Instrument flags,Ambient pressure (hPa),Sample flow (lpm),Bypass flow (lpm),Sample temperature (°C),Ambient temperature (°C),ASC tube jacket temperature (°C),LED temperature (°C),Box temperature (°C),Sample RH (%),Span deviation,Mass concentration (μg/m³),Mass concentration (μg/m³),Mass concentration (μg/m³)
DateTimeUTC,F1_M11,P_M11,Q1_M11,Q2_M11,T1_M11,T2_M11,T3_M11,T4_M11,T5_M11,U1_M11,ZSPAN_M11,X0_M11,X2_M11,X1_M11
2022-09-14 08:00:00,,0821.8,5.01,0.00,30.4,29.0,00.0,39.2,32.2,17.2,0000.0,0011.17,0005.81,0005.20
2022-09-14 08:01:00,,0821.8,4.99,0.00,30.4,29.1,00.0,39.2,32.2,17.4,0000.0,0011.16,0005.85,0005.20
2022-09-14 08:02:00,,0821.7,5.01,0.00,30.4,29.1,00.0,39.2,32.3,17.9,0000.0,0010.81,0005.80,0005.18
2022-09-14 08:03:00,,0821.7,4.99,0.00,30.5,29.1,00.0,39.2,32.3,17.0,0000.0,0010.04,0005.74,0005.17
2022-09-14 08:04:00,,0821.7,5.00,0.00,30.5,29.2,00.0,39.2,32.3,17.0,0000.0,0009.96,0005.71,0005.16
2022-09-14 08:05:00,,0821.7,5.00,0.00,30.5,29.2,00.0,39.2,32.3,17.1,0000.0,0009.77,0005.71,0005.16
2022-09-14 08:06:00,,0821.7,4.99,0.00,30.5,29.2,00.0,39.2,32.3,17.2,0000.7,0009.79,0005.74,0005.18
2022-09-14 08:07:00,,0821.7,5.00,0.00,30.5,29.2,00.0,39.3,32.3,16.8,0001.0,0009.42,0005.82,0005.23
2022-09-14 08:08:00,,0821.7,4.99,0.00,30.5,29.2,00.0,39.3,32.3,16.5,0001.6,0009.37,0005.87,0005.29
2022-09-14 08:09:00,,0821.7,5.01,0.00,30.5,29.2,00.0,39.3,32.4,16.4,0002.3,0009.88,0005.95,0005.38
2022-09-14 08:10:00,,0821.8,5.00,0.00,30.6,29.2,00.0,39.3,32.4,16.4,0002.3,0010.54,0006.02,0005.45
2022-09-14 08:11:00,,0821.8,5.01,0.00,30.6,29.3,00.0,39.3,32.4,16.5,0002.2,0010.47,0006.07,0005.50
2022-09-14 08:12:00,,0821.8,4.99,0.00,30.6,29.3,00.0,39.3,32.4,16.5,0002.5,0010.53,0006.12,0005.54
2022-09-14 08:13:00,,0821.8,5.01,0.00,30.6,29.3,00.0,39.3,32.4,17.7,0002.8,0010.77,0006.16,0005.62
2022-09-14 08:14:00,,0821.8,4.99,0.00,30.6,29.3,00.0,39.4,32.4,16.4,0002.6,0011.57,0006.27,0005.71
2022-09-14 08:15:00,,0821.8,5.02,0.00,30.6,29.3,00.0,39.4,32.4,16.0,0002.3,0012.19,0006.39,0005.78
2022-09-14 08:16:00,,0821.8,4.99,0.00,30.7,28.9,00.0,39.4,32.5,15.7,0001.9,0012.39,0006.52,0005.89
2022-09-14 08:17:00,,0821.8,5.00,0.00,30.6,27.5,00.0,39.3,32.4,16.7,0001.5,0012.65,0006.64,0005.98
2022-09-14 08:18:00,,0821.9,4.99,0.00,30.6,27.1,00.0,39.3,32.3,16.4,0001.3,0012.76,0006.68,0006.02
2022-09-14 08:19:00,,0821.8,5.01,0.00,30.5,27.3,00.0,39.2,32.1,15.7,0001.1,0012.74,0006.74,0006.10
2022-09-14 08:20:00,,0821.8,5.00,0.00,30.4,27.6,00.0,39.2,32.0,15.9,0000.5,0012.50,0006.85,0006.18
2022-09-14 08:21:00,,0821.7,5.00,0.00,30.4,27.8,00.0,39.2,32.0,16.1,0000.8,0012.17,0006.93,0006.26
2022-09-14 08:22:00,,0821.8,5.00,0.00,30.3,28.1,00.0,39.2,32.0,16.2,0001.0,0012.08,0006.98,0006.34
2022-09-14 08:23:00,,0821.7,5.01,0.00,30.3,28.3,00.0,39.1,32.0,16.0,0000.9,0012.04,0007.03,0006.42
2022-09-14 08:24:00,,0821.7,4.99,0.00,30.3,28.4,00.0,39.1,32.0,15.8,0000.9,0012.16,0007.17,0006.52
2022-09-14 08:25:00,,0821.7,5.01,0.00,30.3,28.6,00.0,39.1,32.0,15.7,0001.3,0011.83,0007.34,0006.67
2022-09-14 08:26:00,,0821.7,4.99,0.00,30.3,28.7,00.0,39.1,32.1,15.7,0001.4,0011.45,0007.51,0006.85
2022-09-14 08:27:00,,0821.8,5.00,0.00,30.3,28.8,00.0,39.1,32.1,15.5,0001.5,0011.71,0007.67,0006.99
2022-09-14 08:28:00,,0821.8,5.00,0.00,30.3,28.8,00.0,39.1,32.1,15.5,0001.7,0012.40,0007.86,0007.15
2022-09-14 08:29:00,,0821.8,5.00,0.00,30.4,28.9,00.0,39.1,32.1,15.2,0001.9,0013.39,0008.10,0007.37
2022-09-14 08:30:00,,0821.8,5.00,0.00,30.4,29.0,00.0,39.1,32.1,15.0,0002.2,0013.79,0008.36,0007.59
2022-09-14 08:31:00,,0821.8,4.99,0.00,30.4,29.0,00.0,39.1,32.2,14.9,0002.6,0014.00,0008.58,0007.80
2022-09-14 08:32:00,,0821.8,5.01,0.00,30.4,29.0,00.0,39.2,32.2,15.1,0002.2,0014.24,0008.85,0008.04
2022-09-14 08:33:00,,0821.8,5.00,0.00,30.4,29.1,00.0,39.2,32.2,15.4,0001.9,0014.74,0009.13,0008.27
2022-09-14 08:34:00,,0821.8,4.99,0.00,30.4,29.1,00.0,39.2,32.2,15.6,0002.0,0015.05,0009.36,0008.47
2022-09-14 08:35:00,,0821.8,5.00,0.00,30.4,29.1,00.0,39.2,32.3,15.6,0001.5,0015.33,0009.55,0008.63
2022-09-14 08:36:00,,0821.8,5.01,0.00,30.5,29.2,00.0,39.2,32.3,15.9,0001.3,0015.71,0009.60,0008.70
2022-09-14 08:37:00,,0821.8,4.99,0.00,30.5,29.2,00.0,39.2,32.3,15.5,0001.2,0016.51,0009.67,0008.76
2022-09-14 08:38:00,,0821.8,5.00,0.00,30.5,29.2,00.0,39.2,32.3,15.5,0001.2,0016.60,0009.71,0008.79
2022-09-14 08:39:00,,0821.8,5.01,0.00,30.5,29.2,00.0,39.2,32.3,15.5,0000.8,0016.74,0009.71,0008.78
2022-09-14 08:40:00,,0821.9,4.99,0.00,30.5,29.3,00.0,39.3,32.3,15.6,0000.8,0016.28,0009.67,0008.75
2022-09-14 08:41:00,,0821.8,5.00,0.00,30.6,29.3,00.0,39.3,32.4,15.7,0000.8,0016.82,0009.57,0008.65
2022-09-14 08:42:00,,0821.7,5.02,0.00,30.6,29.3,00.0,39.3,32.4,15.9,0000.5,0017.49,0009.43,0008.52
2022-09-14 08:43:00,,0821.8,4.98,0.00,30.6,29.4,00.0,39.3,32.4,16.2,0000.4,0017.30,0009.26,0008.34
2022-09-14 08:44:00,,0821.8,5.01,0.00,30.6,29.4,00.0,39.3,32.4,16.4,0000.5,0017.28,0009.03,0008.13
2022-09-14 08:45:00,,0821.8,5.00,0.00,30.6,29.4,00.0,39.3,32.4,16.4,0000.5,0017.46,0008.79,0007.91
2022-09-14 08:46:00,,0821.8,4.99,0.00,30.7,29.4,00.0,39.4,32.5,16.4,0000.8,0017.62,0008.53,0007.70
2022-09-14 08:47:00,,0821.8,5.01,0.00,30.7,29.4,00.0,39.4,32.5,16.4,0001.1,0017.07,0008.34,0007.51
2022-09-14 08:48:00,,0821.8,5.00,0.00,30.7,29.4,00.0,39.4,32.5,16.3,0001.1,0016.25,0008.14,0007.32
2022-09-14 08:49:00,,0821.8,5.00,0.00,30.7,29.0,00.0,39.4,32.5,16.3,0001.0,0015.87,0007.91,0007.16
2022-09-14 08:50:00,,0821.8,5.01,0.00,30.7,27.5,00.0,39.4,32.4,16.3,0001.1,0015.46,0007.78,0007.04
2022-09-14 08:51:00,,0821.8,4.99,0.00,30.6,27.1,00.0,39.3,32.3,16.2,0000.9,0015.07,0007.61,0006.90
2022-09-14 08:52:00,,0821.8,5.00,0.00,30.5,27.2,00.0,39.3,32.1,15.8,0000.6,0015.59,0007.51,0006.81
2022-09-14 08:53:00,,0821.8,5.00,0.00,30.5,27.6,00.0,39.2,32.0,16.1,0000.8,0014.49,0007.41,0006.75
2022-09-14 08:54:00,,0821.8,5.01,0.00,30.4,27.9,00.0,39.2,32.0,16.4,0001.3,0014.32,0007.31,0006.69
2022-09-14 08:55:00,,0821.8,5.01,0.00,30.4,28.1,00.0,39.2,32.0,16.7,0001.6,0014.65,0007.27,0006.66
2022-09-14 08:56:00,,0822.0,5.00,0.00,30.4,28.3,00.0,39.2,32.0,16.7,0001.2,0014.32,0007.26,0006.65
2022-09-14 08:57:00,,0822.1,4.99,0.00,30.4,28.5,00.0,39.2,32.1,16.8,0001.4,0013.98,0007.27,0006.63
2022-09-14 08:58:00,,0822.3,5.01,0.00,30.4,28.6,00.0,39.2,32.1,16.8,0001.1,0013.86,0007.26,0006.60
2022-09-14 08:59:00,,0821.9,5.00,0.00,30.4,28.7,00.0,39.2,32.1,16.8,0001.2,0013.97,0007.24,0006.58
